{"data":{"norad_id":67924,"epoch":"2026-05-24T13:23:38.747040Z","epoch_age_seconds":110367,"freshness":"FRESH","line1":"1 67924U 26036W   26144.55808735  .00006561  00000+0  24773-3 0  9996","line2":"2 67924  43.0014 176.9282 0001659 276.3593  83.7070 15.27578150 15320","mean_motion":15.2757815,"eccentricity":0.0001659,"inclination_deg":43.0014,"raan_deg":176.9282,"arg_perigee_deg":276.3593,"mean_anomaly_deg":83.707,"bstar":0.00024773,"rev_number":1532,"period_min":94.266862877032,"perigee_km":481.91636391843,"apogee_km":484.19290730313,"semimajor_km":6861.1916356108,"source":"CELESTRAK","updated_at":"2026-05-25T13:38:21.741683Z"}}